Regional Weather Roundup
Issued by NWS

Home | Current Version | Previous Version | Graphics & Text | Print | Product List | Glossary On
Versions: 1 2 3 4 5 6 7 8 9 10 11 12 13 14 15 16 17 18 19 20 21 22 23 24 25 26 27 28 29 30 31 32 33 34 35 36 37 38 39 40 41 42 43 44 45 46 47 48 49 50
000
ASUS44 KMEG 202210
RWRTN
TENNESSEE HOURLY STATE WEATHER ROUNDUP
NATIONAL WEATHER SERVICE MEMPHIS TN
500 PM CDT SUN AUG 20 2017

TNZ002-004-019-021-049-052-054-088>092-202300-
WEST TENNESSEE

CITY           SKY/WX    TMP DP  RH WIND       PRES   REMARKS
MEMPHIS INTL   CLOUDY    86  75  69 E5        30.04R HX  95
NWS MEMPHIS      N/A     83 N/A N/A MISG        N/A
JACKSON        PTSUNNY   90  77  65 E3        30.04R HX 103
DYERSBURG        N/A     89  80  74 CALM      30.04S HX 106
SOMERVILLE     SUNNY     84  73  70 CALM      30.04S HX  91
COVINGTON      SUNNY     88  79  74 N5        30.03F HX 102
UNION CITY     SUNNY     86  77  74 CALM      30.04R HX  97
BOLIVAR        SUNNY     81  75  83 CALM      30.04S
PARIS          SUNNY     90  70  51 SE3       30.05R HX  95
HUNTINGDON     SUNNY     90  70  51 SE3       30.04R HX  95
LEXINGTON      SUNNY     90  70  51 CALM      30.04S HX  95
SELMER         SUNNY     90  64  43 VRB3      30.04S HX  91
SAVANNAH       SUNNY     93  66  40 N6        30.03R HX  96
$$

TNZ008-025-027-028-033-062-065-066-202300-
NORTH MIDDLE TENNESSEE

CITY           SKY/WX    TMP DP  RH WIND       PRES   REMARKS
NASHVILLE      MOSUNNY   94  55  26 SE5       30.06S HX  92
PORTLAND       SUNNY     91  63  38 CALM      30.07R HX  92
CLARKSVILLE    SUNNY     91  65  41 S5        30.05S HX  93
SMYRNA         SUNNY     94  69  44 S5        30.06S HX  99
COOKEVILLE     SUNNY     90  66  45 CALM      30.08R HX  92
GALLATIN       SUNNY     93  64  38 SE5       30.08R HX  95
CROSSVILLE     SUNNY     82  66  58 SE5       30.15R
$$

TNZ061-075-076-078-094-096-097-202300-
SOUTH MIDDLE TENNESSEE

CITY           SKY/WX    TMP DP  RH WIND       PRES   REMARKS
FAYETTEVILLE   SUNNY     91  63  38 W5        30.07R HX  92
TULLAHOMA      SUNNY     90  61  37 W5        30.10R
WINCHESTER     MOSUNNY   90  68  48 S3        30.08R HX  93
MCMINNVILLE    MOSUNNY   90  72  55 SE3       30.09R HX  96
COLUMBIA       SUNNY     91  64  40 S3        30.04S HX  93
SHELBYVILLE    SUNNY     90  70  51 CALM      30.07R HX  95
$$

TNZ017-018-042-046-047-202300-
NORTHEAST TENNESSEE

CITY           SKY/WX    TMP DP  RH WIND       PRES   REMARKS
TRI CITIES     MOSUNNY   89  67  47 VRB3      30.12S HX  92
ELIZABETHTON   SUNNY     88  66  48 NW6       30.12S HX  90
$$

TNZ012-013-036-069-073-074-202300-
CENTRAL EAST TENNESSEE

CITY           SKY/WX    TMP DP  RH WIND       PRES   REMARKS
KNOXVILLE      MOSUNNY   89  61  38 NW5       30.08R
OAK RIDGE      SUNNY     90  62  39 CALM      30.10R HX  90
DOWNTOWN KNOXV SUNNY     88  72  58 CALM      30.07S HX  94
GATLINBURG     MOSUNNY   90  61  37 W5        30.07S
MORRISTOWN     SUNNY     88  59  37 CALM      30.10S
JACKSBORO      MOSUNNY   86  68  54 CALM      30.13S
$$

TNZ083-085-099-202300-
SOUTHEAST TENNESSEE

CITY           SKY/WX    TMP DP  RH WIND       PRES   REMARKS
CHATTANOOGA    MOSUNNY   91  65  41 CALM      30.06S HX  93
DAYTON         CLEAR     91  72  52 SW5       30.06R HX  98
$$

SKY/WX REPORTED AS FAIR MEANS FEW OR NO CLOUDS BELOW
12 THOUSAND FEET.





USA.gov is the U.S. government's official web portal to all federal, state and local government web resources and services.